This is the latest recevied weather packets stored in our database for station/object K5NCO. If no packets are shown the sender has not sent any weather packets the latest 10 day(s).
| Time | Temp. | Humidity | Pressure | Rain* | Wind** | Luminosity | Snow |
|---|---|---|---|---|---|---|---|
| 1778032292 | 26.67° C | 82% | 1007.8 hPa | 0 mm | - | 0 W/m² | - |
| 1778031990 | 26.67° C | 82% | 1007.8 hPa | 0 mm | - | 0 W/m² | - |
| 1778031685 | 26.67° C | 82% | 1007.8 hPa | 0 mm | - | 0 W/m² | - |
| 1778031384 | 26.67° C | 81% | 1007.7 hPa | 0 mm | - | 0 W/m² | - |
| 1778031080 | 26.67° C | 81% | 1007.8 hPa | 0 mm | - | 0 W/m² | - |
| 1778030775 | 26.67° C | 80% | 1007.8 hPa | 0 mm | - | 0 W/m² | - |
| 1778030472 | 26.67° C | 80% | 1007.7 hPa | 0 mm | - | 1 W/m² | - |
| 1778030170 | 26.67° C | 80% | 1007.6 hPa | 0 mm | - | 1 W/m² | - |
| 1778029866 | 27.22° C | 79% | 1007.7 hPa | 0 mm | - | 2 W/m² | - |
| 1778029560 | 27.22° C | 79% | 1007.9 hPa | 0 mm | - | 4 W/m² | - |
| 1778029256 | 27.22° C | 79% | 1007.6 hPa | 0 mm | - | 8 W/m² | - |
| 1778028954 | 27.22° C | 79% | 1007.8 hPa | 0 mm | - | 12 W/m² | - |
| 1778028650 | 27.22° C | 78% | 1007.6 hPa | 0 mm | - | 17 W/m² | - |
| 1778028347 | 27.22° C | 78% | 1007.5 hPa | 0 mm | - | 25 W/m² | - |
| 1778028044 | 27.78° C | 78% | 1007.6 hPa | 0 mm | - | 42 W/m² | - |
| 1778027740 | 27.78° C | 77% | 1007.7 hPa | 0 mm | - | 43 W/m² | - |
| 1778027437 | 27.78° C | 77% | 1007.6 hPa | 0 mm | - | 37 W/m² | - |
| 1778027132 | 27.78° C | 77% | 1007.7 hPa | 0 mm | - | 55 W/m² | - |
| 1778026828 | 27.78° C | 77% | 1007.6 hPa | 0 mm | - | 50 W/m² | - |
| 1778026525 | 27.78° C | 77% | 1007.6 hPa | 0 mm | - | 50 W/m² | - |
| 1778026222 | 27.78° C | 77% | 1007.8 hPa | 0 mm | - | 49 W/m² | - |
| 1778025920 | 27.78° C | 76% | 1007.7 hPa | 0 mm | - | 60 W/m² | - |
| 1778025617 | 27.78° C | 76% | 1007.5 hPa | 0 mm | - | 67 W/m² | - |
| 1778025315 | 27.78° C | 75% | 1007.7 hPa | 0 mm | - | 60 W/m² | - |
| 1778025011 | 27.78° C | 76% | 1007.5 hPa | 0 mm | - | 62 W/m² | - |
* Rain latest hour (hover to see other rain measurements)
** Current wind speed in m/s (hover to see current wind gust speed)